Tracking 29892 objects as of 21-Nov-2024
HD Live streaming from Space Station
objects crossing your sky now

COSMOS 1823 DEB

Track COSMOS 1823 DEB now!
10-day predictions


NORAD ID: 18802
Int'l Code: 1987-020AN
Perigee: 1,470.9 km
Apogee: 1,635.3 km
Inclination: 73.6 °
Period: 117.0 minutes
Semi major axis: 7924 km
RCS: 0.0581 m2 (small)
Launch date: February 20, 1987
Source: Commonwealth of Independent States (former USSR) (CIS)
Launch site: PLESETSK MISSILE AND SPACE COMPLEX (PKMTR)

Note: This is SATELLITE DEBRIS
Your satellite tracking list
Your tracking list is empty




NASA's NSSDC Master Catalog

Two Line Element Set (TLE):
1 18802U 87020AN  24324.53651546  .00000224  00000-0  19950-2 0  9990
2 18802  73.5881 131.0968 0103730  77.9077 342.3818 12.30763492656364
Source of the keplerian elements: AFSPC